Content
SEND FEEDBACK

Daily
Averages
Monthly
Summary
United States of America

ORANGEBURG, SOUTH CAROLINA


Home > North America > United States > South Carolina
Elevation: 195 feet     Latitude: 33 28N     Longitude: 080 51W

WEATHER
 
SELECT A DAY
Number of Records: 190,543;   Date Range: 3/20/97 - 9/21/14
 
SHARE

PRINT THIS DATA

[ ← Previous Day ]
WEATHER ALMANAC - MAY 13, 2014
[ Next Day → ]
[ °C ]   °F
Weather ElementAverageHighLow
Temperature72.9 °F88 °F (3:53 pm)64 °F (6:53 am)
Dewpoint63.6 °F66 °F (7:53 am)61 °F (1:53 pm)
Humidity76.1 %96 % (6:53 am)40 % (4:53 pm)
Barometer30.15 in30.19 in (9:53 am)30.09 in (6:53 pm)
Wind Speed3.1 mph12.7 mph (4:53 pm)
Weather ElementAverage
Visibility5.8 mi
Wind DirectionENE (81.8 °)

Weather ElementTotal
Precipitation---
Cooling Degree Days11 (Base 65)
Growing Degree Days26 (Base 50)
Averaged from 33 records on May 13, 2014
WEATHER CONDITIONS BREAKOUT
WIND DIRECTION BREAKOUT
WEATHER BY HOUR - MAY 13, 2014
[ °C ]   °F
Local TimeTemperatureDewpointHumidityBarometerVisibilityWind DirectionWind SpeedGust SpeedPrecipitationEventsConditions
2:53 AM69.1 °F64.9 °F87 %30.13 in10.0 miSouth (190°)3.5 mphClear
3:53 AM68.0 °F64.9 °F90 %30.13 in6.0 miCalmClear
4:53 AM66.0 °F64.0 °F93 %30.14 in4.0 miCalmClear
4:56 AM66.0 °F64.0 °F93 %30.15 in1.8 miCalmClear
5:05 AM66.0 °F63.0 °F90 %30.15 in3.0 miCalmClear
5:30 AM66.0 °F63.0 °F90 %30.16 in2.5 miCalmPartly Cloudy
5:44 AM66.0 °F64.0 °F93 %30.16 in1.5 miCalmClear
5:49 AM66.2 °F64.4 °F94 %30.16 in1.0 miCalmMist
5:53 AM66.0 °F64.0 °F93 %30.15 in0.8 miCalmMist
5:58 AM66.0 °F64.0 °F93 %30.16 in1.5 miCalmPartly Cloudy
6:00 AM66.0 °F64.0 °F93 %30.16 in3.0 miCalmClear
6:24 AM66.0 °F63.0 °F90 %30.16 in2.0 miCalmClear
6:27 AM66.0 °F63.0 °F90 %30.16 in1.2 miCalmClear
6:29 AM66.0 °F64.0 °F93 %30.16 in0.5 miCalmFogFog
6:53 AM64.0 °F63.0 °F96 %30.16 in0.2 miCalmFogFog
7:02 AM64.0 °F63.0 °F96 %30.17 in1.5 miCalmPartly Cloudy
7:05 AM64.9 °F63.0 °F93 %30.17 in2.0 miCalmPartly Cloudy
7:19 AM66.9 °F64.9 °F93 %30.17 in4.0 miCalmClear
7:53 AM69.1 °F66.0 °F90 %30.17 in6.0 miSW (220°)3.5 mphClear
9:53 AM78.1 °F66.0 °F66 %30.19 in10.0 miSW (220°)10.4 mphClear
10:53 AM81.0 °F64.0 °F56 %30.19 in10.0 miSW (220°)9.2 mphClear
12:53 PM84.0 °F62.1 °F47 %30.18 in10.0 miCalmClear
1:53 PM84.9 °F61.0 °F44 %30.16 in10.0 miVariable3.5 mphPartly Cloudy
2:53 PM87.1 °F62.1 °F43 %30.14 in10.0 miWSW (240°)9.2 mphScattered Clouds
3:53 PM88.0 °F62.1 °F42 %30.12 in10.0 miSSW (200°)6.9 mphScattered Clouds
4:53 PM88.0 °F61.0 °F40 %30.11 in10.0 miSW (220°)12.7 mphPartly Cloudy
5:53 PM88.0 °F61.0 °F40 %30.10 in10.0 miSSE (160°)9.2 mphPartly Cloudy
6:53 PM86.0 °F61.0 °F43 %30.09 in10.0 miSSE (160°)8.1 mphClear
7:53 PM82.9 °F63.0 °F51 %30.10 in10.0 miSouth (170°)5.8 mphClear
8:53 PM78.1 °F64.9 °F64 %30.12 in10.0 miSouth (170°)6.9 mphClear
9:53 PM75.9 °F64.0 °F67 %30.14 in10.0 miSouth (170°)4.6 mphClear
10:53 PM73.0 °F64.9 °F76 %30.16 in10.0 miSouth (180°)4.6 mphClear
11:53 PM72.0 °F66.0 °F81 %30.16 in10.0 miSouth (180°)4.6 mphClear
Hourly data recorded from KOGB, located miles away from Orangeburg, South Carolina







STORIES FROM OUR PARTNERS